Location: Bijele Vode
(45.2833°N, 16.2000°E)
Time: 19:56:09
(UTC+00:00)

Resurs 01 Rocket - Pass Details

Date: 18 September 2020
Orbit: 633 x 645 km, 98.0° (Epoch: 27 October)

Event Time Altitude Azimuth Distance (km) Brightness Sun altitude
Exits shadow 19:19:14 66° 39° (NE) 707 1.7 -24.2°
Drops below altitude 10° 19:23:19 10° 351° (N) 2,052 4.7 -24.9°
Sets 19:25:32 0° 350° (N) 2,966 5.6 -25.2°
